OneWeb SL0040

operational
NORAD ID: 45147 Int'l Des: 2020-008 Owner: ONEWEB Country: UK Constellation: oneweb
LEOCIRCULARPOLARONEWEB_TYPE

Über OneWeb SL0040

Beschreibung wird geladen...

Live-Position

3D-Globus wird geladen...

Nächste Überflüge

Höhenverlauf

Altitude vs Time

uPlot chart will show altitude changes over time

Zweizeiliger Elementsatz

1 45147U 20008S 25351.77681823 .00000078 00000-0 18810-3 0 9995
2 45147 87.8802 72.4505 0001819 104.0550 256.0780 13.10369047284100
Epoch: 17. Dez. 2025 • Age: 13 hours

Aktueller Status

Höhe 1225.1 km
Geschwindigkeit 7.24 km/s
Subsatellitenpunkt -1.35°S, 126.85°W
Startdatum 6. Feb. 2020
Alter 5.8 years
Typ internet

Technische Details

Klassifizierung Payload
Masse 148.00 kg
Trockenmasse 140.00 kg
Gesamtmasse 148.00 kg
Länge 1.30 m
Durchmesser 1.00 m
Spannweite 5.00 m
Form Trapezoid+2 pan
Hersteller ONEWUS
Bus-Typ ARROW
Phasenstatus In Orbit
Besitzer/Staat ONEWEB/UK

Große Konstellationen

Loading constellations...